This demonstration page uses our WeatherBlox Daily Observations layout. Learn more.

Hourly Observations for March 22, 2020

Temp ( °F °C ) Dew Point ( °F °C ) Humidity (%) Winds ( mph kmh ) Pressure ( in mb ) Visibility ( mi km ) Precip ( " mm )
12:15 am 00:15 Clear 37 3 28 -2 70 70 S 8 13 30.22 1023 10 16.0934 0 0
12:35 am 00:35 Clear 36 2.2 28 -2 74 74 S 9 15 30.21 1023 10 16.0934 0 0
12:55 am 00:55 Clear 36 2.1 28 -2.1 74 74 S 9 15 30.21 1023 10 16.0934 0 0
1:15 am 01:15 Clear 36 2.3 28 -2 74 74 S 9 15 30.2 1023 10 16.0934 0 0
1:35 am 01:35 Clear 37 2.5 28 -2 73 73 S 10 17 30.19 1022 10 16.0934 0 0
1:55 am 01:55 Clear 36 2 28 -2.4 73 73 S 9 15 30.19 1022 10 16.0934 0 0
2:15 am 02:15 Clear 35 1.8 28 -2.5 73 73 S 8 13 30.18 1022 10 16.0934 0 0
2:35 am 02:35 Clear 36 2 28 -2.5 72 72 S 9 15 30.18 1022 10 16.0934 0 0
2:55 am 02:55 Clear 34 1.2 28 -2.5 77 77 S 9 15 30.16 1021 10 16.0934 0 0
3:15 am 03:15 Clear 34 1 28 -2.2 79 79 S 7 11 30.17 1022 10 16.0934 0 0
3:35 am 03:35 Clear 33 0.7 28 -2.4 80 80 S 3 6 30.16 1021 10 16.0934 0 0
3:55 am 03:55 Clear 33 0.3 28 -2.5 82 82 S 3 6 30.16 1021 10 16.0934 0 0
4:15 am 04:15 Clear 32 0.2 28 -2.5 82 82 SSE 3 6 30.16 1021 10 16.0934 0 0
4:35 am 04:35 Clear 32 0 28 -2.5 83 83 S 3 6 30.17 1022 10 16.0934 0 0
4:55 am 04:55 Mostly Cloudy 32 0 28 -2 87 87 SSE 3 6 30.17 1022 10 16.0934 0 0
5:15 am 05:15 Mostly Cloudy 32 0.2 29 -1.7 87 87 SE 3 6 30.16 1021 10 16.0934 0 0
5:35 am 05:35 Partly Cloudy 32 0.2 29 -1.6 88 88 Calm 30.15 1021 10 16.0934 0 0
5:55 am 05:55 Partly Cloudy 33 0.5 29 -1.5 87 87 SSE 3 6 30.15 1021 10 16.0934 0 0
6:15 am 06:15 Partly Cloudy 33 0.3 29 -1.5 88 88 SSE 3 6 30.15 1021 10 16.0934 0 0
6:35 am 06:35 Partly Cloudy 33 0.5 30 -1.3 88 88 SE 5 7 30.15 1021 10 16.0934 0 0
6:55 am 06:55 Cloudy 33 0.5 30 -1.1 89 89 SSE 3 6 30.15 1021 10 16.0934 0 0
7:15 am 07:15 Cloudy 33 0.8 30 -1 88 88 SSE 5 7 30.14 1021 10 16.0934 0 0
7:35 am 07:35 Cloudy 34 1 31 -0.7 89 89 SSE 5 7 30.13 1020 10 16.0934 0 0
7:55 am 07:55 Partly Cloudy 33 0.8 31 -0.6 90 90 SSE 5 7 30.13 1020 10 16.0934 0 0
8:15 am 08:15 Sunny 33 0.8 31 -0.6 90 90 S 7 11 30.13 1020 10 16.0934 0 0
8:35 am 08:35 Partly Cloudy 34 1.1 31 -0.3 91 91 S 3 6 30.13 1020 10 16.0934 0 0
8:55 am 08:55 Mostly Cloudy 34 1.2 32 0 92 92 S 5 7 30.12 1020 10 16.0934 0 0
9:15 am 09:15 Cloudy 36 2.3 33 0.6 89 89 S 7 11 30.11 1020 10 16.0934 0 0
9:35 am 09:35 Cloudy 38 3.1 34 1.3 88 88 S 8 13 30.11 1019 10 16.0934 0 0
9:55 am 09:55 Cloudy 39 3.9 35 1.9 87 87 S 9 15 30.1 1019 10 16.0934 0 0
10:15 am 10:15 Cloudy 40 4.2 36 2.2 87 87 S 10 17 30.08 1018 10 16.0934 0 0
10:35 am 10:35 Cloudy 41 4.8 37 2.6 86 86 S 10 17 30.07 1018 10 16.0934 0 0
10:55 am 10:55 Cloudy 42 5.4 37 3 85 85 S 12 19 30.08 1019 10 16.0934 0 0
11:15 am 11:15 Cloudy 42 5.5 37 2.8 83 83 S 13 20 30.08 1019 10 16.0934 0 0
11:35 am 11:35 Cloudy 42 5.8 37 3 82 82 S 10 17 30.08 1019 10 16.0934 0 0
11:55 am 11:55 Cloudy 43 5.9 37 3 82 82 S 14 22 30.08 1019 10 16.0934 0 0
12:15 pm 12:15 Cloudy 42 5.8 38 3.2 84 84 S 12 19 30.08 1019 10 16.0934 0 0
12:35 pm 12:35 Cloudy 43 6 38 3.5 84 84 S 13 20 30.08 1019 10 16.0934 0 0
12:55 pm 12:55 Cloudy 43 6.1 38 3.5 84 84 S 10 17 30.08 1019 10 16.0934 0 0
1:15 pm 13:15 Cloudy 44 6.5 39 3.7 83 83 S 13 20 30.05 1018 10 16.0934 0 0
1:35 pm 13:35 Cloudy 45 7 39 3.7 80 80 S 10 17 30.05 1018 10 16.0934 0 0
1:55 pm 13:55 Cloudy 46 7.6 39 3.7 77 77 S 10 17 30.03 1017 10 16.0934 0 0
2:15 pm 14:15 Cloudy 47 8.4 39 4 74 74 S 10 17 30.02 1016 10 16.0934 0 0
2:35 pm 14:35 Mostly Cloudy 48 9 39 4 71 71 S 10 17 30 1016 10 16.0934 0 0
2:55 pm 14:55 Partly Cloudy 50 10.2 40 4.4 68 68 SSE 10 17 29.97 1015 10 16.0934 0 0
3:15 pm 15:15 Partly Cloudy 50 10 40 4.3 68 68 SSE 13 20 29.96 1015 10 16.0934 0 0
3:35 pm 15:35 Sunny 49 9.7 40 4.2 69 69 SSE 10 17 29.97 1015 10 16.0934 0 0
3:55 pm 15:55 Partly Cloudy 51 10.6 40 4.6 67 67 S 13 20 29.95 1014 10 16.0934 0 0
4:15 pm 16:15 Sunny 51 10.5 40 4.4 66 66 S 12 19 29.94 1014 10 16.0934 0 0
4:35 pm 16:35 Sunny 52 11.1 40 4.4 64 64 SSE 10 17 29.93 1014 10 16.0934 0 0
4:55 pm 16:55 Sunny 52 11.1 39 4.1 62 62 S 10 17 29.93 1014 10 16.0934 0 0
5:15 pm 17:15 Sunny 52 11.1 40 4.4 64 64 SSE 10 17 29.93 1014 10 16.0934 0 0
5:35 pm 17:35 Sunny 51 10.5 39 4 64 64 S 10 17 29.95 1014 10 16.0934 0 0
5:55 pm 17:55 Sunny 50 10.2 39 4 66 66 S 10 17 29.96 1015 10 16.0934 0 0
6:15 pm 18:15 Sunny 50 10 39 4 67 67 S 8 13 29.98 1015 10 16.0934 0 0
6:35 pm 18:35 Partly Cloudy 49 9.5 39 4.1 69 69 S 8 13 29.99 1015 10 16.0934 0 0
6:55 pm 18:55 Partly Cloudy 48 9 40 4.4 73 73 SSE 8 13 30 1016 10 16.0934 0 0
7:15 pm 19:15 Mostly Cloudy 48 8.8 40 4.5 75 75 SSE 7 11 30 1016 10 16.0934 0 0
7:35 pm 19:35 Cloudy 47 8.3 40 4.6 78 78 SSE 7 11 30.01 1016 10 16.0934 0 0
7:55 pm 19:55 Partly Cloudy 46 7.7 40 4.5 80 80 S 10 17 30.01 1016 10 16.0934 0 0
8:15 pm 20:15 Clear 45 7.2 40 4.3 82 82 S 14 22 30 1016 10 16.0934 0 0
8:35 pm 20:35 Clear 44 6.6 39 4.1 84 84 SSE 14 22 30 1016 10 16.0934 0 0
8:55 pm 20:55 Partly Cloudy 43 6 39 4 87 87 SSE 9 15 30.01 1016 10 16.0934 0 0
9:15 pm 21:15 Clear 42 5.5 39 3.8 89 89 SSE 10 17 30.01 1016 10 16.0934 0 0
9:35 pm 21:35 Clear 41 5.1 38 3.6 90 90 S 7 11 30.04 1017 10 16.0934 0 0
9:55 pm 21:55 Partly Cloudy 40 4.6 38 3.3 91 91 S 7 11 30.05 1018 10 16.0934 0 0
10:15 pm 22:15 Clear 39 4.1 37 3 93 93 S 8 13 30.06 1018 10 16.0934 0 0
10:35 pm 22:35 Clear 40 4.2 38 3.2 93 93 S 10 17 30.06 1018 10 16.0934 0 0
10:55 pm 22:55 Clear 39 4 37 3 93 93 SSW 10 17 30.08 1019 10 16.0934 0 0
11:15 pm 23:15 Clear 39 3.8 37 2.8 93 93 SSW 9 15 30.08 1019 10 16.0934 0 0
11:35 pm 23:35 Clear 39 3.7 37 2.8 94 94 S 9 15 30.08 1019 10 16.0934 0 0
11:55 pm 23:55 Clear 38 3.6 37 2.7 94 94 SSW 9 15 30.08 1019 10 16.0934 0 0

Powered by AerisWeather